Location: Spring Creek
(38.2870°N, 100.2160°W)
Time: 03:48:11
(UTC+00:00)

Cosmos 2082 - Pass Details

Date: 08 May 2021
Orbit: 832 x 856 km, 71.0° (Epoch: 22 June)

Event Time Altitude Azimuth Distance (km) Brightness Sun altitude
Rises 10:25:06 0° 337° (NNW) 3,412 7.0 -13.0°
Reaches altitude 10° 10:27:32 10° 337° (NNW) 2,477 6.3 -12.7°
Maximum altitude 10:33:15 86° 248° (WSW) 858 3.7 -11.7°
Drops below altitude 10° 10:38:57 10° 161° (SSE) 2,475 6.0 -10.8°
Sets 10:41:23 0° 161° (SSE) 3,409 6.7 -10.4°
